Location: Fort Wayne
(41.1310°N, 85.1290°W)
Time: 13:41:46
(UTC-05:00)

Cosmos 2056 Rocket - Visible Passes

Search period start: 05 March 2015 00:00
Search period end: 15 March 2015 01:00
Orbit: 744 x 801 km, 74.0° (Epoch: 04 March)

Date Brightness Start Highest point End Pass type
(mag) Time Alt. Az. Time Alt. Az. Time Alt. Az.
05 Mar 6.4 05:01:34 10° NNE 05:03:53 13° NE 05:06:28 10° E visible
05 Mar 3.5 06:41:39 10° NNW 06:46:52 86° WSW 06:52:09 10° SSE visible
05 Mar 4.2 19:38:25 10° SSE 19:42:48 30° E 19:47:16 10° NE visible
05 Mar 5.1 21:20:22 10° SW 21:24:56 31° WNW 21:29:27 10° N visible
06 Mar 4.2 06:05:57 10° NNW 06:11:05 57° ENE 06:16:16 10° SSE visible
06 Mar 4.8 19:03:56 10° SE 19:07:13 18° E 19:10:42 10° NE visible
06 Mar 4.2 20:44:01 10° SW 20:49:00 51° WNW 20:54:00 10° N visible
07 Mar 5.2 05:30:27 10° N 05:35:10 35° ENE 05:40:00 10° SE visible
07 Mar 3.4 20:08:04 10° SSW 20:13:12 86° WNW 20:18:21 10° NNE visible
07 Mar 6.5 21:54:21 10° WNW 21:56:17 12° NW 21:57:57 10° NNW visible
08 Mar 5.9 05:55:10 10° N 05:59:10 22° ENE 06:03:18 10° ESE visible
08 Mar 3.8 07:36:36 10° NNW 07:41:38 47° WSW 07:46:39 10° S visible
08 Mar 3.5 20:32:29 10° S 20:37:28 56° ESE 20:42:29 10° NNE visible
08 Mar 6.0 22:16:28 10° W 22:20:05 19° NW 22:23:34 10° NNW visible
09 Mar 6.4 05:20:21 10° NNE 05:23:01 14° NE 05:25:56 10° E visible
09 Mar 3.4 07:00:42 10° NNW 07:05:56 80° WSW 07:11:13 10° SSE visible
09 Mar 5.4 21:39:33 10° WSW 21:44:01 29° WNW 21:48:26 10° N visible
10 Mar 4.0 06:24:58 10° NNW 06:30:09 62° ENE 06:35:24 10° SSE visible
10 Mar 4.5 21:03:08 10° SW 21:08:04 47° WNW 21:13:01 10° N visible
11 Mar 4.9 05:49:25 10° N 05:54:16 38° ENE 05:59:12 10° SE visible
11 Mar 4.5 07:31:56 10° NW 07:36:17 26° W 07:40:34 10° SSW visible
11 Mar 3.6 20:27:07 10° SSW 20:32:15 80° WNW 20:37:22 10° NNE visible
11 Mar 6.6 22:14:00 10° WNW 22:15:24 11° NW 22:16:32 10° NW visible
12 Mar 5.7 05:14:06 10° N 05:18:16 24° ENE 05:22:34 10° ESE visible
12 Mar 3.8 06:55:42 10° NNW 07:00:39 44° WSW 07:05:39 10° S visible
12 Mar 6.3 21:35:45 10° W 21:39:11 17° NW 21:42:28 10° NNW visible
13 Mar 6.3 04:39:10 10° NNE 04:42:08 15° NE 04:45:20 10° E visible
13 Mar 3.4 06:19:44 10° NNW 06:24:58 74° WSW 06:30:16 10° S visible
13 Mar 5.6 20:58:44 10° WSW 21:03:06 27° WNW 21:07:24 10° N visible
14 Mar 3.8 05:43:59 10° NNW 05:49:13 67° ENE 05:54:31 10° SSE visible
14 Mar 5.1 07:28:00 10° WNW 07:30:52 14° W 07:33:30 10° SW visible
14 Mar 4.8 20:22:15 10° SW 20:27:07 44° WNW 20:32:01 10° N visible
